Wetterdaten: Woche 29.09.14 - 05.10.14 (KW40)
Datum Zeit Temp. A. Feuchte A. Luftdruck Regen Wind Richtung Sonnenschein ET UV Solar Taupunkt Windchill Windben Empfang
29.09.2014 00:00 10,5 C 88 % 1024,8 hPa 0,0 l/m 0,0 km/h (0 Bft) N 0,00 h 0,000 mm 0,0 UV-I 0 W/m 8,6 C 10,5 C 0,0 km/h (0 Bft) 0,00 %
29.09.2014 01:00 10,2 C 89 % 1025,3 hPa 0,0 l/m 0,0 km/h (0 Bft) N 0,00 h 0,000 mm 0,0 UV-I 0 W/m 8,5 C 10,2 C 0,0 km/h (0 Bft) 0,00 %
29.09.2014 02:00 10,4 C 90 % 1025,3 hPa 0,0 l/m 0,0 km/h (0 Bft) N 0,00 h 0,000 mm 0,0 UV-I 0 W/m 8,7 C 10,4 C 0,0 km/h (0 Bft) 0,00 %
29.09.2014 03:00 10,6 C 89 % 1025,0 hPa 0,0 l/m 0,0 km/h (0 Bft) N 0,00 h 0,000 mm 0,0 UV-I 0 W/m 8,9 C 10,6 C 0,0 km/h (0 Bft) 0,00 %
29.09.2014 04:00 11,0 C 89 % 1025,0 hPa 0,0 l/m 0,0 km/h (0 Bft) N 0,00 h 0,000 mm 0,0 UV-I 0 W/m 9,2 C 11,0 C 0,0 km/h (0 Bft) 0,00 %
29.09.2014 05:00 11,2 C 90 % 1024,9 hPa 0,0 l/m 0,0 km/h (0 Bft) N 0,00 h 0,000 mm 0,0 UV-I 0 W/m 9,6 C 11,2 C 0,0 km/h (0 Bft) 0,00 %
29.09.2014 06:00 11,3 C 90 % 1024,9 hPa 0,0 l/m 0,0 km/h (0 Bft) N 0,00 h 0,000 mm 0,0 UV-I 0 W/m 9,7 C 11,3 C 0,0 km/h (0 Bft) 0,00 %
29.09.2014 07:00 11,1 C 90 % 1025,4 hPa 0,0 l/m 0,0 km/h (0 Bft) N 0,00 h 0,000 mm 1,0 UV-I 15 W/m 9,5 C 11,1 C 0,0 km/h (0 Bft) 0,00 %
29.09.2014 08:00 11,7 C 89 % 1026,0 hPa 0,0 l/m 0,0 km/h (0 Bft) N 0,00 h 0,000 mm 1,3 UV-I 56 W/m 9,9 C 11,7 C 0,0 km/h (0 Bft) 0,00 %
29.09.2014 09:00 12,4 C 88 % 1026,2 hPa 0,0 l/m 0,0 km/h (0 Bft) N 0,00 h 0,000 mm 1,3 UV-I 136 W/m 10,4 C 12,4 C 0,0 km/h (0 Bft) 0,00 %
29.09.2014 10:00 13,0 C 84 % 1026,4 hPa 0,0 l/m 0,1 km/h (0 Bft) N 0,00 h 0,000 mm 2,7 UV-I 137 W/m 10,3 C 13,0 C 1,0 km/h (0 Bft) 0,00 %
29.09.2014 11:00 14,4 C 78 % 1025,7 hPa 0,0 l/m 0,2 km/h (0 Bft) O-SO 0,00 h 0,000 mm 4,0 UV-I 239 W/m 10,6 C 14,4 C 1,0 km/h (0 Bft) 0,00 %
29.09.2014 12:00 15,8 C 74 % 1024,1 hPa 0,0 l/m 1,2 km/h (1 Bft) N-NO 0,50 h 0,000 mm 3,0 UV-I 444 W/m 11,1 C 15,8 C 3,0 km/h (1 Bft) 0,00 %
29.09.2014 13:00 16,2 C 76 % 1023,1 hPa 0,0 l/m 1,6 km/h (1 Bft) O-NO 1,00 h 0,000 mm 2,0 UV-I 557 W/m 11,9 C 16,2 C 3,0 km/h (1 Bft) 0,00 %
29.09.2014 14:00 16,7 C 75 % 1022,2 hPa 0,0 l/m 0,2 km/h (0 Bft) NW 1,00 h 0,000 mm 2,0 UV-I 531 W/m 12,1 C 16,7 C 2,0 km/h (1 Bft) 0,00 %
29.09.2014 15:00 17,1 C 73 % 1021,7 hPa 0,0 l/m 1,0 km/h (0 Bft) NO 1,00 h 0,000 mm 1,7 UV-I 517 W/m 12,3 C 17,1 C 4,0 km/h (1 Bft) 0,00 %
29.09.2014 16:00 18,0 C 71 % 1021,0 hPa 0,0 l/m 0,6 km/h (0 Bft) N-NO 1,00 h 0,000 mm 1,0 UV-I 500 W/m 12,5 C 18,0 C 3,0 km/h (1 Bft) 0,00 %
29.09.2014 17:00 18,5 C 68 % 1021,3 hPa 0,0 l/m 0,8 km/h (0 Bft) N 1,00 h 0,000 mm 0,0 UV-I 355 W/m 12,5 C 18,5 C 1,0 km/h (0 Bft) 0,00 %
29.09.2014 18:00 16,5 C 75 % 1022,1 hPa 0,0 l/m 0,0 km/h (0 Bft) N 0,75 h 0,000 mm 0,0 UV-I 85 W/m 12,1 C 16,5 C 0,0 km/h (0 Bft) 0,00 %
29.09.2014 19:00 14,1 C 85 % 1022,8 hPa 0,0 l/m 0,0 km/h (0 Bft) N 0,00 h 0,000 mm 0,0 UV-I 0 W/m 11,5 C 14,1 C 0,0 km/h (0 Bft) 0,00 %
29.09.2014 20:00 12,7 C 88 % 1023,5 hPa 0,0 l/m 0,0 km/h (0 Bft) N 0,00 h 0,000 mm 0,0 UV-I 0 W/m 10,7 C 12,7 C 0,0 km/h (0 Bft) 0,00 %
29.09.2014 21:00 12,0 C 88 % 1024,0 hPa 0,0 l/m 0,0 km/h (0 Bft) N 0,00 h 0,000 mm 0,0 UV-I 0 W/m 10,1 C 12,0 C 0,0 km/h (0 Bft) 0,00 %
29.09.2014 22:00 11,4 C 89 % 1024,1 hPa 0,0 l/m 0,0 km/h (0 Bft) N 0,00 h 0,000 mm 0,0 UV-I 0 W/m 9,5 C 11,4 C 0,0 km/h (0 Bft) 0,00 %
29.09.2014 23:00 10,7 C 89 % 1024,2 hPa 0,0 l/m 0,0 km/h (0 Bft) N 0,00 h 0,000 mm 0,0 UV-I 0 W/m 9,0 C 10,7 C 0,0 km/h (0 Bft) 0,00 %
30.09.2014 00:00 10,2 C 90 % 1024,4 hPa 0,0 l/m 0,0 km/h (0 Bft) N 0,00 h 0,000 mm 0,0 UV-I 0 W/m 8,6 C 10,2 C 0,0 km/h (0 Bft) 0,00 %
30.09.2014 01:00 11,3 C 89 % 1024,4 hPa 0,0 l/m 0,0 km/h (0 Bft) N 0,00 h 0,000 mm 0,0 UV-I 0 W/m 9,6 C 11,3 C 0,0 km/h (0 Bft) 0,00 %
30.09.2014 02:00 11,6 C 89 % 1024,4 hPa 0,0 l/m 0,0 km/h (0 Bft) N 0,00 h 0,000 mm 0,0 UV-I 0 W/m 9,9 C 11,6 C 0,0 km/h (0 Bft) 0,00 %
30.09.2014 03:00 11,7 C 89 % 1024,6 hPa 0,3 l/m 0,0 km/h (0 Bft) N 0,00 h 0,000 mm 0,0 UV-I 0 W/m 9,9 C 11,7 C 0,0 km/h (0 Bft) 0,00 %
30.09.2014 04:00 12,0 C 89 % 1024,6 hPa 0,0 l/m 0,0 km/h (0 Bft) N 0,00 h 0,000 mm 0,0 UV-I 0 W/m 10,3 C 12,0 C 0,0 km/h (0 Bft) 0,00 %
30.09.2014 05:00 12,2 C 89 % 1024,6 hPa 0,0 l/m 0,0 km/h (0 Bft) N 0,00 h 0,000 mm 0,0 UV-I 0 W/m 10,4 C 12,2 C 0,0 km/h (0 Bft) 0,00 %
30.09.2014 06:00 12,3 C 89 % 1024,8 hPa 0,0 l/m 0,0 km/h (0 Bft) N 0,00 h 0,000 mm 0,0 UV-I 0 W/m 10,5 C 12,3 C 0,0 km/h (0 Bft) 0,00 %
30.09.2014 07:00 12,3 C 89 % 1025,1 hPa 0,0 l/m 0,0 km/h (0 Bft) N 0,00 h 0,000 mm 1,0 UV-I 11 W/m 10,5 C 12,3 C 0,0 km/h (0 Bft) 0,00 %
30.09.2014 08:00 12,6 C 90 % 1025,3 hPa 0,0 l/m 0,0 km/h (0 Bft) N 0,00 h 0,000 mm 1,0 UV-I 50 W/m 10,9 C 12,6 C 0,0 km/h (0 Bft) 0,00 %
30.09.2014 09:00 13,2 C 90 % 1025,5 hPa 0,0 l/m 0,0 km/h (0 Bft) N 0,00 h 0,000 mm 2,0 UV-I 115 W/m 11,6 C 13,2 C 0,0 km/h (0 Bft) 0,00 %
30.09.2014 10:00 13,8 C 89 % 1025,4 hPa 0,0 l/m 0,0 km/h (0 Bft) N 0,00 h 0,000 mm 2,0 UV-I 152 W/m 12,0 C 13,8 C 0,0 km/h (0 Bft) 0,00 %
30.09.2014 11:00 14,9 C 82 % 1024,9 hPa 0,0 l/m 0,0 km/h (0 Bft) N 0,00 h 0,000 mm 2,0 UV-I 174 W/m 11,8 C 14,9 C 0,0 km/h (0 Bft) 0,00 %
30.09.2014 12:00 15,4 C 80 % 1024,7 hPa 0,0 l/m 0,0 km/h (0 Bft) N 0,00 h 0,000 mm 3,0 UV-I 242 W/m 11,9 C 15,4 C 0,0 km/h (0 Bft) 0,00 %
30.09.2014 13:00 16,9 C 76 % 1024,0 hPa 0,0 l/m 0,0 km/h (0 Bft) N 0,50 h 0,000 mm 2,7 UV-I 354 W/m 12,5 C 16,9 C 0,0 km/h (0 Bft) 0,00 %
30.09.2014 14:00 17,3 C 75 % 1023,2 hPa 0,0 l/m 0,1 km/h (0 Bft) N 0,00 h 0,000 mm 2,0 UV-I 210 W/m 12,7 C 17,3 C 1,0 km/h (0 Bft) 0,00 %
30.09.2014 15:00 18,7 C 71 % 1022,3 hPa 0,0 l/m 0,0 km/h (0 Bft) N 0,00 h 0,000 mm 1,7 UV-I 197 W/m 13,3 C 18,7 C 0,0 km/h (0 Bft) 0,00 %
30.09.2014 16:00 19,6 C 67 % 1022,0 hPa 0,0 l/m 0,0 km/h (0 Bft) N 0,00 h 0,000 mm 1,0 UV-I 142 W/m 13,3 C 19,6 C 0,0 km/h (0 Bft) 0,00 %
30.09.2014 17:00 18,9 C 71 % 1022,5 hPa 0,0 l/m 0,0 km/h (0 Bft) N 0,00 h 0,000 mm 0,0 UV-I 54 W/m 13,5 C 18,9 C 0,0 km/h (0 Bft) 0,00 %
30.09.2014 18:00 17,7 C 78 % 1022,9 hPa 0,0 l/m 0,0 km/h (0 Bft) N 0,00 h 0,000 mm 0,0 UV-I 16 W/m 13,8 C 17,7 C 0,0 km/h (0 Bft) 0,00 %
30.09.2014 19:00 16,3 C 83 % 1023,3 hPa 0,0 l/m 0,0 km/h (0 Bft) N 0,00 h 0,000 mm 0,0 UV-I 0 W/m 13,3 C 16,3 C 0,0 km/h (0 Bft) 0,00 %
30.09.2014 20:00 15,8 C 84 % 1023,7 hPa 0,0 l/m 0,0 km/h (0 Bft) N 0,00 h 0,000 mm 0,0 UV-I 0 W/m 13,1 C 15,8 C 0,0 km/h (0 Bft) 0,00 %
30.09.2014 21:00 15,6 C 84 % 1023,7 hPa 0,0 l/m 0,0 km/h (0 Bft) N 0,00 h 0,000 mm 0,0 UV-I 0 W/m 12,9 C 15,6 C 0,0 km/h (0 Bft) 0,00 %
30.09.2014 22:00 15,3 C 85 % 1023,7 hPa 0,0 l/m 0,0 km/h (0 Bft) N 0,00 h 0,000 mm 0,0 UV-I 0 W/m 12,8 C 15,3 C 0,0 km/h (0 Bft) 0,00 %
30.09.2014 23:00 15,2 C 85 % 1023,8 hPa 0,0 l/m 0,0 km/h (0 Bft) N 0,00 h 0,000 mm 0,0 UV-I 0 W/m 12,7 C 15,2 C 0,0 km/h (0 Bft) 0,00 %
01.10.2014 00:00 15,2 C 86 % 1023,8 hPa 0,0 l/m 0,0 km/h (0 Bft) N 0,00 h 0,000 mm 0,0 UV-I 0 W/m 12,8 C 15,2 C 0,0 km/h (0 Bft) 0,00 %
01.10.2014 01:00 15,2 C 86 % 1024,1 hPa 0,9 l/m 0,0 km/h (0 Bft) N 0,00 h 0,000 mm 0,0 UV-I 0 W/m 12,8 C 15,2 C 0,0 km/h (0 Bft) 0,00 %
01.10.2014 02:00 14,9 C 87 % 1024,2 hPa 3,3 l/m 0,0 km/h (0 Bft) N 0,00 h 0,000 mm 0,0 UV-I 0 W/m 12,8 C 14,9 C 0,0 km/h (0 Bft) 0,00 %
01.10.2014 03:00 14,8 C 87 % 1024,3 hPa 0,9 l/m 0,0 km/h (0 Bft) N 0,00 h 0,000 mm 0,0 UV-I 0 W/m 12,6 C 14,8 C 0,0 km/h (0 Bft) 0,00 %
01.10.2014 04:00 14,3 C 87 % 1024,3 hPa 0,9 l/m 0,0 km/h (0 Bft) N 0,00 h 0,000 mm 0,0 UV-I 0 W/m 12,1 C 14,3 C 0,0 km/h (0 Bft) 0,00 %
01.10.2014 05:00 13,8 C 87 % 1024,1 hPa 0,0 l/m 0,0 km/h (0 Bft) N 0,00 h 0,000 mm 0,0 UV-I 0 W/m 11,6 C 13,8 C 0,0 km/h (0 Bft) 0,00 %
01.10.2014 06:00 13,8 C 87 % 1024,0 hPa 0,6 l/m 0,0 km/h (0 Bft) N 0,00 h 0,000 mm 0,0 UV-I 0 W/m 11,7 C 13,8 C 0,0 km/h (0 Bft) 0,00 %
01.10.2014 07:00 13,8 C 87 % 1024,1 hPa 0,6 l/m 0,0 km/h (0 Bft) N 0,00 h 0,000 mm 0,0 UV-I 15 W/m 11,6 C 13,8 C 0,0 km/h (0 Bft) 0,00 %
01.10.2014 08:00 14,1 C 87 % 1024,1 hPa 0,3 l/m 0,0 km/h (0 Bft) N 0,00 h 0,000 mm 0,0 UV-I 34 W/m 12,0 C 14,1 C 0,0 km/h (0 Bft) 0,00 %
01.10.2014 09:00 14,6 C 85 % 1024,4 hPa 0,6 l/m 0,0 km/h (0 Bft) N 0,00 h 0,000 mm 1,0 UV-I 64 W/m 12,1 C 14,6 C 0,0 km/h (0 Bft) 0,00 %
01.10.2014 10:00 14,9 C 84 % 1024,6 hPa 0,3 l/m 0,0 km/h (0 Bft) N 0,00 h 0,000 mm 1,0 UV-I 114 W/m 12,2 C 14,9 C 0,0 km/h (0 Bft) 0,00 %
01.10.2014 11:00 16,0 C 81 % 1024,5 hPa 0,6 l/m 0,0 km/h (0 Bft) N 0,00 h 0,000 mm 1,0 UV-I 168 W/m 12,8 C 16,0 C 0,0 km/h (0 Bft) 0,00 %
01.10.2014 12:00 16,8 C 80 % 1024,2 hPa 0,3 l/m 0,0 km/h (0 Bft) N 0,00 h 0,000 mm 1,3 UV-I 189 W/m 13,2 C 16,8 C 0,0 km/h (0 Bft) 0,00 %
01.10.2014 13:00 17,0 C 79 % 1024,0 hPa 0,6 l/m 0,0 km/h (0 Bft) N 0,00 h 0,000 mm 2,3 UV-I 224 W/m 13,3 C 17,0 C 0,0 km/h (0 Bft) 0,00 %
01.10.2014 14:00 17,2 C 78 % 1023,5 hPa 0,0 l/m 0,0 km/h (0 Bft) N 0,00 h 0,000 mm 2,0 UV-I 173 W/m 13,4 C 17,2 C 0,0 km/h (0 Bft) 0,00 %
01.10.2014 15:00 16,8 C 79 % 1023,5 hPa 0,6 l/m 0,0 km/h (0 Bft) N 0,00 h 0,000 mm 1,3 UV-I 115 W/m 13,1 C 16,8 C 0,0 km/h (0 Bft) 0,00 %
01.10.2014 16:00 16,0 C 82 % 1023,6 hPa 0,6 l/m 0,0 km/h (0 Bft) N 0,00 h 0,000 mm 1,0 UV-I 59 W/m 12,9 C 16,0 C 0,0 km/h (0 Bft) 0,00 %
01.10.2014 17:00 15,3 C 84 % 1023,9 hPa 4,2 l/m 0,0 km/h (0 Bft) N 0,00 h 0,000 mm 0,0 UV-I 11 W/m 12,5 C 15,3 C 0,0 km/h (0 Bft) 0,00 %
01.10.2014 18:00 14,9 C 86 % 1024,2 hPa 8,4 l/m 0,0 km/h (0 Bft) N 0,00 h 0,000 mm 0,0 UV-I 0 W/m 12,6 C 14,9 C 0,0 km/h (0 Bft) 0,00 %
01.10.2014 19:00 14,7 C 87 % 1024,5 hPa 0,3 l/m 0,0 km/h (0 Bft) N 0,00 h 0,000 mm 0,0 UV-I 0 W/m 12,5 C 14,7 C 0,0 km/h (0 Bft) 0,00 %
01.10.2014 20:00 14,5 C 87 % 1024,7 hPa 0,0 l/m 0,0 km/h (0 Bft) N 0,00 h 0,000 mm 0,0 UV-I 0 W/m 12,4 C 14,5 C 0,0 km/h (0 Bft) 0,00 %
01.10.2014 21:00 14,3 C 88 % 1025,2 hPa 0,0 l/m 0,0 km/h (0 Bft) N 0,00 h 0,000 mm 0,0 UV-I 0 W/m 12,3 C 14,3 C 0,0 km/h (0 Bft) 0,00 %
01.10.2014 22:00 14,5 C 88 % 1025,3 hPa 0,0 l/m 0,0 km/h (0 Bft) N 0,00 h 0,000 mm 0,0 UV-I 0 W/m 12,6 C 14,5 C 0,0 km/h (0 Bft) 0,00 %
01.10.2014 23:00 14,2 C 89 % 1025,5 hPa 0,0 l/m 0,0 km/h (0 Bft) N 0,00 h 0,000 mm 0,0 UV-I 0 W/m 12,4 C 14,2 C 0,0 km/h (0 Bft) 0,00 %
02.10.2014 00:00 13,9 C 89 % 1025,8 hPa 0,0 l/m 0,0 km/h (0 Bft) N 0,00 h 0,000 mm 0,0 UV-I 0 W/m 12,1 C 13,9 C 0,0 km/h (0 Bft) 0,00 %
02.10.2014 01:00 13,6 C 89 % 1026,2 hPa 0,0 l/m 0,0 km/h (0 Bft) N 0,00 h 0,000 mm 0,0 UV-I 0 W/m 11,8 C 13,6 C 0,0 km/h (0 Bft) 0,00 %
02.10.2014 02:00 13,6 C 89 % 1026,3 hPa 0,0 l/m 0,0 km/h (0 Bft) N 0,00 h 0,000 mm 0,0 UV-I 0 W/m 11,8 C 13,6 C 0,0 km/h (0 Bft) 0,00 %
02.10.2014 03:00 13,4 C 90 % 1026,4 hPa 0,0 l/m 0,0 km/h (0 Bft) N 0,00 h 0,000 mm 0,0 UV-I 0 W/m 11,8 C 13,4 C 0,0 km/h (0 Bft) 0,00 %
02.10.2014 04:00 13,4 C 90 % 1026,7 hPa 0,0 l/m 0,0 km/h (0 Bft) N 0,00 h 0,000 mm 0,0 UV-I 0 W/m 11,8 C 13,4 C 0,0 km/h (0 Bft) 0,00 %
02.10.2014 05:00 13,1 C 89 % 1026,8 hPa 0,0 l/m 0,0 km/h (0 Bft) N 0,00 h 0,000 mm 0,0 UV-I 0 W/m 11,4 C 13,1 C 0,0 km/h (0 Bft) 0,00 %
02.10.2014 06:00 12,6 C 89 % 1027,3 hPa 0,0 l/m 0,0 km/h (0 Bft) N 0,00 h 0,000 mm 0,0 UV-I 0 W/m 10,9 C 12,6 C 0,0 km/h (0 Bft) 0,00 %
02.10.2014 07:00 12,8 C 89 % 1027,8 hPa 0,0 l/m 0,0 km/h (0 Bft) N 0,00 h 0,000 mm 0,0 UV-I 25 W/m 11,0 C 12,8 C 0,0 km/h (0 Bft) 0,00 %
02.10.2014 08:00 13,4 C 89 % 1027,9 hPa 0,0 l/m 0,0 km/h (0 Bft) N 0,00 h 0,000 mm 1,0 UV-I 91 W/m 11,6 C 13,4 C 0,0 km/h (0 Bft) 0,00 %
02.10.2014 09:00 14,4 C 87 % 1027,8 hPa 0,0 l/m 0,0 km/h (0 Bft) N 0,25 h 0,000 mm 2,0 UV-I 181 W/m 12,2 C 14,4 C 0,0 km/h (0 Bft) 0,00 %
02.10.2014 10:00 16,3 C 75 % 1027,2 hPa 0,0 l/m 0,0 km/h (0 Bft) N 0,00 h 0,000 mm 2,7 UV-I 206 W/m 11,9 C 16,3 C 0,0 km/h (0 Bft) 0,00 %
02.10.2014 11:00 16,4 C 72 % 1026,9 hPa 0,0 l/m 0,0 km/h (0 Bft) N 0,25 h 0,000 mm 2,7 UV-I 247 W/m 11,2 C 16,4 C 0,0 km/h (0 Bft) 0,00 %
02.10.2014 12:00 17,4 C 66 % 1026,8 hPa 0,0 l/m 0,3 km/h (0 Bft) N 0,75 h 0,000 mm 3,3 UV-I 364 W/m 10,9 C 17,4 C 2,0 km/h (1 Bft) 0,00 %
02.10.2014 13:00 17,5 C 63 % 1026,6 hPa 0,0 l/m 0,1 km/h (0 Bft) N 0,00 h 0,000 mm 3,0 UV-I 231 W/m 10,4 C 17,5 C 1,0 km/h (0 Bft) 0,00 %
02.10.2014 14:00 18,4 C 55 % 1025,9 hPa 0,0 l/m 0,0 km/h (0 Bft) N 0,00 h 0,000 mm 2,7 UV-I 220 W/m 9,1 C 18,4 C 0,0 km/h (0 Bft) 0,00 %
02.10.2014 15:00 19,6 C 52 % 1025,4 hPa 0,0 l/m 0,7 km/h (0 Bft) O-SO 0,50 h 0,000 mm 2,0 UV-I 245 W/m 9,4 C 19,6 C 2,0 km/h (1 Bft) 0,00 %
02.10.2014 16:00 18,7 C 58 % 1025,6 hPa 0,0 l/m 0,1 km/h (0 Bft) N 0,00 h 0,000 mm 1,0 UV-I 133 W/m 10,2 C 18,7 C 1,0 km/h (0 Bft) 0,00 %
02.10.2014 17:00 17,8 C 62 % 1025,6 hPa 0,0 l/m 0,0 km/h (0 Bft) N 0,00 h 0,000 mm 1,0 UV-I 95 W/m 10,4 C 17,8 C 0,0 km/h (0 Bft) 0,00 %
02.10.2014 18:00 16,3 C 67 % 1026,2 hPa 0,0 l/m 0,2 km/h (0 Bft) N 0,00 h 0,000 mm 0,0 UV-I 10 W/m 10,2 C 16,3 C 2,0 km/h (1 Bft) 0,00 %
02.10.2014 19:00 15,0 C 71 % 1026,6 hPa 0,0 l/m 0,4 km/h (0 Bft) NO 0,00 h 0,000 mm 0,0 UV-I 0 W/m 9,8 C 15,0 C 2,0 km/h (1 Bft) 0,00 %
02.10.2014 20:00 14,3 C 74 % 1026,8 hPa 0,0 l/m 0,3 km/h (0 Bft) N 0,00 h 0,000 mm 0,0 UV-I 0 W/m 9,7 C 14,3 C 1,0 km/h (0 Bft) 0,00 %
02.10.2014 21:00 13,4 C 77 % 1026,9 hPa 0,0 l/m 0,0 km/h (0 Bft) N 0,00 h 0,000 mm 0,0 UV-I 0 W/m 9,5 C 13,4 C 0,0 km/h (0 Bft) 0,00 %
02.10.2014 22:00 12,3 C 81 % 1027,1 hPa 0,0 l/m 0,0 km/h (0 Bft) N 0,00 h 0,000 mm 0,0 UV-I 0 W/m 9,1 C 12,3 C 0,0 km/h (0 Bft) 0,00 %
02.10.2014 23:00 11,7 C 83 % 1027,0 hPa 0,0 l/m 0,2 km/h (0 Bft) N 0,00 h 0,000 mm 0,0 UV-I 0 W/m 8,8 C 11,7 C 2,0 km/h (1 Bft) 0,00 %
03.10.2014 00:00 11,1 C 83 % 1026,7 hPa 0,0 l/m 0,0 km/h (0 Bft) N 0,00 h 0,000 mm 0,0 UV-I 0 W/m 8,3 C 11,1 C 0,0 km/h (0 Bft) 0,00 %
03.10.2014 01:00 10,2 C 86 % 1026,9 hPa 0,0 l/m 0,0 km/h (0 Bft) N 0,00 h 0,000 mm 0,0 UV-I 0 W/m 7,9 C 10,2 C 0,0 km/h (0 Bft) 0,00 %
03.10.2014 02:00 9,6 C 87 % 1026,8 hPa 0,0 l/m 0,0 km/h (0 Bft) N 0,00 h 0,000 mm 0,0 UV-I 0 W/m 7,5 C 9,6 C 0,0 km/h (0 Bft) 0,00 %
03.10.2014 03:00 9,1 C 88 % 1026,4 hPa 0,0 l/m 0,0 km/h (0 Bft) N 0,00 h 0,000 mm 0,0 UV-I 0 W/m 7,2 C 9,1 C 0,0 km/h (0 Bft) 0,00 %
03.10.2014 04:00 8,8 C 88 % 1026,3 hPa 0,0 l/m 0,0 km/h (0 Bft) N 0,00 h 0,000 mm 0,0 UV-I 0 W/m 6,9 C 8,8 C 0,0 km/h (0 Bft) 0,00 %
03.10.2014 05:00 9,3 C 89 % 1026,1 hPa 0,0 l/m 0,0 km/h (0 Bft) N 0,00 h 0,000 mm 0,0 UV-I 0 W/m 7,5 C 9,3 C 0,0 km/h (0 Bft) 0,00 %
03.10.2014 06:00 9,5 C 88 % 1026,1 hPa 0,0 l/m 0,0 km/h (0 Bft) N 0,00 h 0,000 mm 0,0 UV-I 0 W/m 7,6 C 9,5 C 0,0 km/h (0 Bft) 0,00 %
03.10.2014 07:00 9,6 C 89 % 1026,2 hPa 0,0 l/m 0,0 km/h (0 Bft) N 0,00 h 0,000 mm 0,0 UV-I 18 W/m 7,9 C 9,6 C 0,0 km/h (0 Bft) 0,00 %
03.10.2014 08:00 10,3 C 89 % 1026,1 hPa 0,0 l/m 0,0 km/h (0 Bft) N 0,00 h 0,000 mm 1,0 UV-I 82 W/m 8,5 C 10,3 C 0,0 km/h (0 Bft) 0,00 %
03.10.2014 09:00 11,8 C 87 % 1025,8 hPa 0,0 l/m 0,0 km/h (0 Bft) N 0,00 h 0,000 mm 1,7 UV-I 147 W/m 9,6 C 11,8 C 0,0 km/h (0 Bft) 0,00 %
03.10.2014 10:00 13,5 C 78 % 1025,1 hPa 0,0 l/m 1,4 km/h (1 Bft) N-NO 0,25 h 0,000 mm 2,7 UV-I 263 W/m 9,6 C 13,5 C 3,0 km/h (1 Bft) 0,00 %
03.10.2014 11:00 15,1 C 71 % 1024,0 hPa 0,0 l/m 2,9 km/h (1 Bft) O-NO 0,25 h 0,000 mm 3,0 UV-I 319 W/m 9,9 C 15,1 C 5,9 km/h (2 Bft) 0,00 %
03.10.2014 12:00 15,9 C 69 % 1023,1 hPa 0,0 l/m 8,6 km/h (2 Bft) O-SO 1,00 h 0,000 mm 3,0 UV-I 464 W/m 10,1 C 14,8 C 11,9 km/h (2 Bft) 0,00 %
03.10.2014 13:00 16,8 C 64 % 1022,4 hPa 0,0 l/m 6,7 km/h (2 Bft) S-SO 0,00 h 0,000 mm 3,0 UV-I 234 W/m 9,9 C 15,9 C 10,9 km/h (2 Bft) 0,00 %
03.10.2014 14:00 16,3 C 65 % 1022,0 hPa 0,0 l/m 3,9 km/h (1 Bft) NO 0,00 h 0,000 mm 2,0 UV-I 187 W/m 9,6 C 16,2 C 5,9 km/h (2 Bft) 0,00 %
03.10.2014 15:00 16,6 C 62 % 1021,5 hPa 0,0 l/m 4,5 km/h (1 Bft) O 0,00 h 0,000 mm 2,0 UV-I 193 W/m 9,2 C 16,6 C 5,9 km/h (2 Bft) 0,00 %
03.10.2014 16:00 17,0 C 61 % 1021,4 hPa 0,0 l/m 5,3 km/h (1 Bft) O 0,75 h 0,000 mm 1,3 UV-I 206 W/m 9,4 C 16,8 C 8,9 km/h (2 Bft) 0,00 %
03.10.2014 17:00 16,0 C 65 % 1021,8 hPa 0,0 l/m 4,0 km/h (1 Bft) O-SO 0,00 h 0,000 mm 1,0 UV-I 76 W/m 9,4 C 15,9 C 5,9 km/h (2 Bft) 0,00 %
03.10.2014 18:00 14,9 C 69 % 1022,1 hPa 0,0 l/m 0,8 km/h (0 Bft) O-SO 0,00 h 0,000 mm 0,0 UV-I 11 W/m 9,3 C 14,9 C 3,0 km/h (1 Bft) 0,00 %
03.10.2014 19:00 14,0 C 73 % 1022,4 hPa 0,0 l/m 0,2 km/h (0 Bft) N 0,00 h 0,000 mm 0,0 UV-I 0 W/m 9,2 C 14,0 C 2,0 km/h (1 Bft) 0,00 %
03.10.2014 20:00 13,2 C 76 % 1022,3 hPa 0,0 l/m 0,1 km/h (0 Bft) N 0,00 h 0,000 mm 0,0 UV-I 0 W/m 9,0 C 13,2 C 1,0 km/h (0 Bft) 0,00 %
03.10.2014 21:00 11,6 C 82 % 1022,3 hPa 0,0 l/m 0,0 km/h (0 Bft) N 0,00 h 0,000 mm 0,0 UV-I 0 W/m 8,5 C 11,6 C 0,0 km/h (0 Bft) 0,00 %
03.10.2014 22:00 10,8 C 84 % 1022,4 hPa 0,0 l/m 0,0 km/h (0 Bft) N 0,00 h 0,000 mm 0,0 UV-I 0 W/m 8,2 C 10,8 C 0,0 km/h (0 Bft) 0,00 %
03.10.2014 23:00 10,4 C 86 % 1021,9 hPa 0,0 l/m 0,0 km/h (0 Bft) N 0,00 h 0,000 mm 0,0 UV-I 0 W/m 8,1 C 10,4 C 0,0 km/h (0 Bft) 0,00 %
04.10.2014 00:00 9,9 C 87 % 1021,9 hPa 0,0 l/m 0,7 km/h (0 Bft) O 0,00 h 0,000 mm 0,0 UV-I 0 W/m 7,8 C 9,9 C 1,0 km/h (0 Bft) 0,00 %
04.10.2014 01:00 10,1 C 86 % 1021,7 hPa 0,0 l/m 4,6 km/h (1 Bft) O-SO 0,00 h 0,000 mm 0,0 UV-I 0 W/m 7,8 C 10,0 C 6,9 km/h (2 Bft) 0,00 %
04.10.2014 02:00 9,6 C 85 % 1021,3 hPa 0,0 l/m 6,4 km/h (2 Bft) O 0,00 h 0,000 mm 0,0 UV-I 0 W/m 7,1 C 9,0 C 10,9 km/h (2 Bft) 0,00 %
04.10.2014 03:00 9,7 C 85 % 1020,9 hPa 0,0 l/m 4,1 km/h (1 Bft) O 0,00 h 0,000 mm 0,0 UV-I 0 W/m 7,3 C 9,0 C 6,9 km/h (2 Bft) 0,00 %
04.10.2014 04:00 9,4 C 84 % 1020,8 hPa 0,0 l/m 4,8 km/h (1 Bft) O 0,00 h 0,000 mm 0,0 UV-I 0 W/m 6,9 C 9,2 C 8,9 km/h (2 Bft) 0,00 %
04.10.2014 05:00 9,3 C 83 % 1020,4 hPa 0,0 l/m 5,6 km/h (1 Bft) O 0,00 h 0,000 mm 0,0 UV-I 0 W/m 6,6 C 8,1 C 8,9 km/h (2 Bft) 0,00 %
04.10.2014 06:00 9,4 C 82 % 1020,2 hPa 0,0 l/m 8,0 km/h (2 Bft) SO 0,00 h 0,000 mm 0,0 UV-I 0 W/m 6,5 C 7,6 C 13,0 km/h (3 Bft) 0,00 %
04.10.2014 07:00 9,3 C 82 % 1020,0 hPa 0,0 l/m 8,3 km/h (2 Bft) O 0,00 h 0,000 mm 0,0 UV-I 2 W/m 6,4 C 7,6 C 10,9 km/h (2 Bft) 0,00 %
04.10.2014 08:00 9,4 C 82 % 1020,2 hPa 0,0 l/m 9,4 km/h (2 Bft) O-SO 0,00 h 0,000 mm 1,0 UV-I 28 W/m 6,4 C 6,9 C 15,8 km/h (3 Bft) 0,00 %
04.10.2014 09:00 9,8 C 81 % 1019,7 hPa 0,0 l/m 4,4 km/h (1 Bft) O 0,00 h 0,000 mm 1,0 UV-I 58 W/m 6,6 C 9,3 C 7,9 km/h (2 Bft) 0,00 %
04.10.2014 10:00 10,1 C 80 % 1019,6 hPa 0,0 l/m 6,3 km/h (2 Bft) O 0,00 h 0,000 mm 1,0 UV-I 86 W/m 6,8 C 9,0 C 9,9 km/h (2 Bft) 0,00 %
04.10.2014 11:00 10,4 C 79 % 1019,2 hPa 0,0 l/m 4,0 km/h (1 Bft) S 0,00 h 0,000 mm 1,0 UV-I 87 W/m 6,8 C 10,4 C 6,9 km/h (2 Bft) 0,00 %
04.10.2014 12:00 11,5 C 73 % 1018,6 hPa 0,0 l/m 7,1 km/h (2 Bft) O 0,00 h 0,000 mm 2,7 UV-I 198 W/m 6,7 C 10,4 C 10,9 km/h (2 Bft) 0,00 %
04.10.2014 13:00 12,9 C 68 % 1017,6 hPa 0,0 l/m 6,2 km/h (2 Bft) O-SO 0,00 h 0,000 mm 2,7 UV-I 262 W/m 7,2 C 12,3 C 9,9 km/h (2 Bft) 0,00 %
04.10.2014 14:00 13,8 C 67 % 1016,1 hPa 0,0 l/m 3,8 km/h (1 Bft) N-NO 0,00 h 0,000 mm 2,3 UV-I 251 W/m 7,6 C 13,7 C 5,9 km/h (2 Bft) 0,00 %
04.10.2014 15:00 14,0 C 68 % 1015,2 hPa 0,0 l/m 6,5 km/h (2 Bft) O 0,50 h 0,000 mm 2,0 UV-I 292 W/m 8,1 C 13,7 C 8,9 km/h (2 Bft) 0,00 %
04.10.2014 16:00 14,0 C 68 % 1014,8 hPa 0,0 l/m 8,7 km/h (2 Bft) O-NO 1,00 h 0,000 mm 1,0 UV-I 354 W/m 8,1 C 12,4 C 11,9 km/h (2 Bft) 0,00 %
04.10.2014 17:00 13,7 C 71 % 1015,1 hPa 0,0 l/m 6,4 km/h (2 Bft) O-SO 1,00 h 0,000 mm 1,0 UV-I 167 W/m 8,4 C 12,9 C 8,9 km/h (2 Bft) 0,00 %
04.10.2014 18:00 12,6 C 76 % 1015,6 hPa 0,0 l/m 0,4 km/h (0 Bft) N 0,25 h 0,000 mm 0,0 UV-I 22 W/m 8,4 C 12,6 C 3,0 km/h (1 Bft) 0,00 %
04.10.2014 19:00 12,7 C 76 % 1015,5 hPa 0,0 l/m 3,1 km/h (1 Bft) O 0,00 h 0,000 mm 0,0 UV-I 0 W/m 8,5 C 12,1 C 5,0 km/h (1 Bft) 0,00 %
04.10.2014 20:00 12,9 C 74 % 1015,6 hPa 0,0 l/m 3,8 km/h (1 Bft) NO 0,00 h 0,000 mm 0,0 UV-I 0 W/m 8,3 C 12,9 C 7,9 km/h (2 Bft) 0,00 %
04.10.2014 21:00 12,2 C 76 % 1015,8 hPa 0,0 l/m 2,9 km/h (1 Bft) NO 0,00 h 0,000 mm 0,0 UV-I 0 W/m 8,2 C 12,2 C 6,9 km/h (2 Bft) 0,00 %
04.10.2014 22:00 11,6 C 78 % 1016,1 hPa 0,0 l/m 6,7 km/h (2 Bft) O 0,00 h 0,000 mm 0,0 UV-I 0 W/m 7,9 C 10,9 C 8,9 km/h (2 Bft) 0,00 %
04.10.2014 23:00 11,3 C 80 % 1015,8 hPa 0,0 l/m 2,3 km/h (1 Bft) O 0,00 h 0,000 mm 0,0 UV-I 0 W/m 7,8 C 11,2 C 5,0 km/h (1 Bft) 0,00 %
05.10.2014 00:00 11,0 C 80 % 1015,8 hPa 0,0 l/m 0,6 km/h (0 Bft) O 0,00 h 0,000 mm 0,0 UV-I 0 W/m 7,7 C 11,0 C 2,0 km/h (1 Bft) 0,00 %
05.10.2014 01:00 11,1 C 80 % 1015,6 hPa 0,0 l/m 0,8 km/h (0 Bft) SO 0,00 h 0,000 mm 0,0 UV-I 0 W/m 7,8 C 11,1 C 1,0 km/h (0 Bft) 0,00 %
05.10.2014 02:00 10,9 C 80 % 1015,5 hPa 0,0 l/m 0,2 km/h (0 Bft) N 0,00 h 0,000 mm 0,0 UV-I 0 W/m 7,7 C 10,9 C 2,0 km/h (1 Bft) 0,00 %
05.10.2014 03:00 10,4 C 82 % 1015,5 hPa 0,0 l/m 0,0 km/h (0 Bft) N 0,00 h 0,000 mm 0,0 UV-I 0 W/m 7,5 C 10,4 C 0,0 km/h (0 Bft) 0,00 %
05.10.2014 04:00 10,2 C 83 % 1015,6 hPa 0,0 l/m 0,0 km/h (0 Bft) N 0,00 h 0,000 mm 0,0 UV-I 0 W/m 7,5 C 10,2 C 0,0 km/h (0 Bft) 0,00 %
05.10.2014 05:00 10,0 C 84 % 1015,7 hPa 0,0 l/m 0,0 km/h (0 Bft) N 0,00 h 0,000 mm 0,0 UV-I 0 W/m 7,5 C 10,0 C 0,0 km/h (0 Bft) 0,00 %
05.10.2014 06:00 9,8 C 84 % 1015,8 hPa 0,0 l/m 0,0 km/h (0 Bft) N 0,00 h 0,000 mm 0,0 UV-I 0 W/m 7,3 C 9,8 C 0,0 km/h (0 Bft) 0,00 %
05.10.2014 07:00 9,8 C 85 % 1016,0 hPa 0,0 l/m 0,0 km/h (0 Bft) N 0,00 h 0,000 mm 0,0 UV-I 1 W/m 7,4 C 9,8 C 0,0 km/h (0 Bft) 0,00 %
05.10.2014 08:00 9,9 C 85 % 1016,3 hPa 0,0 l/m 1,4 km/h (1 Bft) O 0,00 h 0,000 mm 0,0 UV-I 22 W/m 7,4 C 9,9 C 4,0 km/h (1 Bft) 0,00 %
05.10.2014 09:00 10,1 C 84 % 1016,6 hPa 0,0 l/m 1,5 km/h (1 Bft) O 0,00 h 0,000 mm 1,0 UV-I 45 W/m 7,5 C 10,1 C 3,0 km/h (1 Bft) 0,00 %
05.10.2014 10:00 10,5 C 83 % 1016,7 hPa 0,0 l/m 1,0 km/h (0 Bft) O-SO 0,00 h 0,000 mm 1,0 UV-I 95 W/m 7,8 C 10,5 C 3,0 km/h (1 Bft) 0,00 %
05.10.2014 11:00 11,5 C 80 % 1016,5 hPa 0,0 l/m 0,7 km/h (0 Bft) O 0,00 h 0,000 mm 1,0 UV-I 136 W/m 8,1 C 11,5 C 3,0 km/h (1 Bft) 0,00 %
05.10.2014 12:00 12,6 C 76 % 1016,0 hPa 0,0 l/m 0,1 km/h (0 Bft) O 0,00 h 0,000 mm 2,3 UV-I 239 W/m 8,5 C 12,6 C 1,0 km/h (0 Bft) 0,00 %
05.10.2014 13:00 13,6 C 72 % 1015,3 hPa 0,0 l/m 1,0 km/h (0 Bft) O 0,00 h 0,000 mm 3,0 UV-I 301 W/m 8,6 C 13,6 C 3,0 km/h (1 Bft) 0,00 %
05.10.2014 14:00 14,0 C 72 % 1015,1 hPa 0,0 l/m 2,0 km/h (1 Bft) O 0,00 h 0,000 mm 2,0 UV-I 226 W/m 9,0 C 14,0 C 4,0 km/h (1 Bft) 0,00 %
05.10.2014 15:00 14,1 C 71 % 1014,9 hPa 0,0 l/m 1,3 km/h (1 Bft) O 0,00 h 0,000 mm 1,3 UV-I 147 W/m 8,9 C 14,1 C 4,0 km/h (1 Bft) 0,00 %
05.10.2014 16:00 14,1 C 71 % 1014,6 hPa 0,0 l/m 1,2 km/h (1 Bft) O 0,00 h 0,000 mm 1,0 UV-I 141 W/m 8,8 C 14,1 C 4,0 km/h (1 Bft) 0,00 %
05.10.2014 17:00 13,8 C 70 % 1014,5 hPa 0,0 l/m 0,7 km/h (0 Bft) S 0,00 h 0,000 mm 1,0 UV-I 55 W/m 8,4 C 13,8 C 3,0 km/h (1 Bft) 0,00 %
05.10.2014 18:00 12,1 C 77 % 1014,7 hPa 0,0 l/m 0,0 km/h (0 Bft) N 0,00 h 0,000 mm 0,0 UV-I 10 W/m 8,2 C 12,1 C 0,0 km/h (0 Bft) 0,00 %
05.10.2014 19:00 10,4 C 83 % 1015,0 hPa 0,0 l/m 0,0 km/h (0 Bft) N 0,00 h 0,000 mm 0,0 UV-I 0 W/m 7,6 C 10,4 C 0,0 km/h (0 Bft) 0,00 %
05.10.2014 20:00 10,0 C 86 % 1014,8 hPa 0,0 l/m 0,0 km/h (0 Bft) N 0,00 h 0,000 mm 0,0 UV-I 0 W/m 7,7 C 10,0 C 0,0 km/h (0 Bft) 0,00 %
05.10.2014 21:00 10,7 C 85 % 1014,6 hPa 0,0 l/m 0,0 km/h (0 Bft) N 0,00 h 0,000 mm 0,0 UV-I 0 W/m 8,3 C 10,7 C 0,0 km/h (0 Bft) 0,00 %
05.10.2014 22:00 11,2 C 82 % 1014,3 hPa 0,0 l/m 0,3 km/h (0 Bft) N 0,00 h 0,000 mm 0,0 UV-I 0 W/m 8,2 C 11,2 C 2,0 km/h (1 Bft) 0,00 %
05.10.2014 23:00 11,1 C 80 % 1014,1 hPa 0,0 l/m 0,4 km/h (0 Bft) O-SO 0,00 h 0,000 mm 0,0 UV-I 0 W/m 7,8 C 11,1 C 2,0 km/h (1 Bft) 0,00 %
Min-Datum _ 03.10.14 02.10.14 05.10.14 - 29.09.14 - - - - - 04.10.14 04.10.14 29.09.14 29.09.14
_ Min-Zeit 04:45 14:45 23:00 - 00:00 - - - - - 08:30 07:00 00:00 00:00
Minimum _ 8,6 C 50 % 1014,0 hPa - 0,0 km/h (0 Bft) - - - - - 6,3 C 3,1 C 0,0 km/h (0 Bft) 0,00 %
Max-Datum _ 02.10.14 29.09.14 02.10.14 01.10.14 04.10.14 - 29.09.14 29.09.14 29.09.14 29.09.14 30.09.14 02.10.14 04.10.14 29.09.14
_ Max-Zeit 15:15 01:45 07:45 18:45 07:00 - 12:30 00:00 11:45 13:00 18:00 15:15 06:15 00:00
Maximum _ 20,0 C 90 % 1028,0 hPa 8,4 l/m 18,0 km/h
O (3 Bft)
- 0,25 h 0,000 mm 5,0 UV-I 576 W/m 14,2 C 20,0 C 24,1 km/h
SO (4 Bft)
0,00 %
Durchschnitt _ 13,3 C 81 % 1022,4 hPa #24,3 l/m 1,1 km/h (1 Bft) O #13:30 h #0,000 mm 1,8 UV-I 168 W/m 9,9 C 13,2 C 2,0 km/h (1 Bft) 0,00 %